Location: Bartr�s
(43.1167°N, 0.0333°W)
Time: 10:55:24
(UTC+00:00)

Daily predictions for brighter satellites

Satellite Brightness Start Highest point End
(mag) Time Altitude Azimuth Time Altitude Azimuth Time Altitude Azimuth
Cosmos 2026 Rocket 4.4 16:47:48 10° SSE 16:53:20 39° E 16:58:55 10° NNE
IRS-1C Rocket 4.3 16:51:19 10° SE 16:56:23 50° ENE 17:01:28 10° N
Cosmos 2297 3.7 16:50:55 10° NNW 16:56:36 65° ENE 17:02:12 10° SE
Cosmos 1174 4.2 16:51:51 10° SSW 16:56:54 83° WNW 17:00:55 10° NNE
Cosmos 1666 2.6 16:53:19 10° N 16:57:01 61° E 17:00:42 10° SSE
Cosmos 1862 Rocket 4.3 16:53:53 10° SSW 16:58:10 55° W 17:02:32 10° N
Cosmos 1703 Rocket 3.7 16:57:59 10° S 17:02:21 57° E 17:06:46 10° NNE
AQUARIUS 4.5 17:00:04 10° SE 17:04:20 45° ENE 17:08:38 10° N
CZ-4C R/B 3.4 17:03:00 10° SSE 17:06:29 19° ESE 17:10:19 10° ENE
STARLINK-48 4.0 17:03:46 10° SSW 17:07:28 45° SE 17:11:07 11° ENE
USA 267 3.6 17:01:47 10° E 17:07:57 46° NNE 17:14:08 10° NW
Cosmos 1140 Rocket 3.8 17:03:29 10° S 17:08:23 47° ESE 17:13:19 10° NNE
Cosmos 1689 Rocket 4.0 17:06:55 10° N 17:09:38 31° WNW 17:12:19 10° SW
Okean 2 Rocket 4.1 17:09:35 10° NNE 17:13:17 24° ENE 17:16:59 10° SE
CZ-4 R/B 2.9 17:11:42 10° E 17:13:52 15° ENE 17:16:03 10° NNE
USA 229 DEB 4.4 17:13:18 10° NNW 17:19:52 36° NE 17:26:40 10° ESE
Cosmos 2221 Rocket 4.4 17:16:02 10° SSE 17:19:55 31° E 17:23:49 10° NNE
USA 229 4.4 17:13:25 10° NNW 17:19:57 36° NE 17:26:44 10° ESE
Envisat 3.4 17:15:19 10° SE 17:20:01 40° ENE 17:24:45 10° N
CZ-4B R/B 4.5 17:15:25 10° S 17:20:30 45° W 17:25:45 10° NNW
Cosmos 1975 3.5 17:17:58 10° NNE 17:21:35 31° ENE 17:25:11 10° SE
Sich 1 Rocket 3.7 17:17:44 10° N 17:22:00 48° ENE 17:26:15 10° SSE
Okean 1-7 3.0 17:18:36 10° S 17:22:57 80° E 17:27:21 10° N
Cosmos 1943 4.3 17:20:54 10° SSE 17:25:20 24° ESE 17:28:51 14° NE
BREEZE-M DEB (TANK) 1.9 17:20:18 10° WNW 17:25:21 84° NNE 17:27:46 10° ESE
STARLINK-43 3.8 17:22:47 10° WSW 17:26:26 53° NNW 17:29:23 15° NE
Cosmos 407 Rocket 3.6 17:23:08 10° SSW 17:28:20 79° WNW 17:33:39 10° NNE
Okean O Rocket 3.7 17:26:46 10° SSW 17:30:35 30° W 17:34:26 10° NW
Lacrosse 5 2.3 17:28:00 10° SSW 17:32:51 46° SE 17:36:27 17° ENE
NOSS 7 (H) 4.1 17:30:10 10° SSW 17:33:33 82° SE 17:35:39 18° NE
CORIOLIS 4.1 17:29:19 10° SSE 17:34:45 84° ENE 17:40:14 10° NNW
Cosmos 1627 Rocket 4.5 17:28:40 10° S 17:34:47 90° E 17:40:59 10° N
Cosmos 1241 Rocket 4.5 17:29:45 10° SSW 17:36:05 70° ESE 17:41:56 12° NE
Cosmos 2369 Rocket 2.5 17:32:36 10° NNW 17:37:58 42° ENE 17:43:19 10° SE
Cosmos 1300 Rocket 4.2 17:36:38 10° NNE 17:40:31 32° ENE 17:44:22 10° SE
Cosmos 1743 2.6 17:36:55 10° N 17:40:48 86° ENE 17:44:42 10° S
SMAP 3.5 17:37:41 10° S 17:42:19 67° WSW 17:46:58 10° NNW
Okean 3 3.8 17:40:02 10° SSE 17:43:57 41° E 17:47:16 14° NNE
COSMO-SKYMED 1 3.0 17:41:45 12° NNE 17:45:32 42° E 17:49:39 10° S
YAOGAN 1 3.4 17:42:18 10° SE 17:45:58 28° ENE 17:49:40 10° N
SL-16 R/B 3.0 17:40:33 10° SW 17:46:04 51° WNW 17:51:38 10° NNE
Abrixas rocket 2.2 17:43:42 10° WSW 17:46:41 60° NNW 17:47:53 31° NE
Cosmos 921 Rocket 4.3 17:44:09 10° NNW 17:48:17 44° WSW 17:52:26 10° S
YAOGAN 3 4.5 17:44:16 10° SSE 17:48:37 79° ENE 17:53:00 10° N
STARLINK-61 4.0 17:46:30 10° SSW 17:50:20 47° SE 17:52:04 28° E
Cosmos 1943 Rocket 2.1 17:47:00 10° NNW 17:52:37 65° ENE 17:58:08 10° SE
Cosmos 2237 Rocket 4.3 17:48:33 10° W 17:52:43 20° NW 17:56:54 10° N
Cosmos 1603 3.8 17:48:01 10° S 17:53:35 56° ESE 17:57:52 17° NE
Meteor 1-18 Rocket 4.3 17:49:57 10° SSW 17:55:38 82° W 18:01:16 10° N
STARLINK-80 3.8 17:52:17 10° WSW 17:56:01 54° NNW 17:57:49 27° NE
STARLINK-71 4.4 17:54:03 10° SSW 17:57:43 35° SE 17:58:49 29° E
Cosmos 1655 Rocket 4.0 17:52:07 10° S 17:58:18 63° E 18:04:29 10° NNE
STARLINK-79 4.4 17:55:34 10° SSW 17:59:11 33° SE 18:00:08 29° ESE
Okean-O 2.7 17:55:17 10° S 17:59:42 80° WSW 18:04:10 10° NNW
STARLINK-78 4.4 17:57:13 10° SSW 18:00:52 34° SE 18:01:46 30° ESE
STARLINK-57 4.3 17:58:53 10° SSW 18:02:35 37° SE 18:03:28 32° ESE
STARLINK-49 4.3 18:00:26 10° SSW 18:04:08 36° SE 18:04:55 33° ESE
Aureole 3 Rocket 2.2 18:02:53 12° N 18:05:36 62° E 18:08:58 10° SSE
STARLINK-27 4.2 18:02:03 10° SSW 18:05:46 37° SE 18:06:30 34° ESE
FengYun 1-2 T 4.1 18:01:29 10° SSE 18:06:57 77° ENE 18:12:29 10° N
BREEZE-M R/B 2.5 18:02:35 10° WNW 18:07:15 56° NNE 18:07:44 50° ENE
STARLINK-74 4.2 18:03:40 10° SSW 18:07:25 38° SE 18:08:05 35° ESE
STARLINK-39 4.1 18:05:19 10° SSW 18:09:05 40° SE 18:09:42 37° ESE
Cosmos 1763 Rocket 4.0 18:04:37 10° N 18:09:15 33° ENE 18:09:31 33° ENE
CSL-04 Rocket 3.7 18:04:20 10° SE 18:09:24 51° ENE 18:14:34 10° N
Lacrosse 5 rocket 3.6 18:08:09 10° NNW 18:09:28 11° N 18:09:54 11° N
SKYMED 3 4.4 18:06:04 15° NNE 18:09:39 78° ESE 18:13:58 10° S
Cosmos 1461 3.0 18:06:31 10° S 18:10:15 44° ESE 18:10:37 43° E
STARLINK 4.0 18:06:55 10° SSW 18:10:43 41° SE 18:11:17 39° ESE
STARLINK-42 3.9 18:08:37 10° SSW 18:12:27 45° SE 18:13:00 42° ESE
SL-4 R/B 2.3 18:09:41 10° NW 18:13:23 43° NNE 18:13:40 42° NE
STARLINK-21 3.9 18:10:13 10° SSW 18:14:03 44° SE 18:14:30 42° ESE
Cosmos 405 Rocket 2.5 18:11:44 10° N 18:15:27 89° ENE 18:19:11 10° S
STARLINK-45 3.7 18:11:58 10° SW 18:15:51 51° SE 18:16:21 48° ESE
USA 215 3.8 18:12:59 20° NE 18:17:21 52° NNW 18:23:37 10° WSW
STARLINK-75 3.6 18:13:42 10° SW 18:17:37 55° SE 18:18:06 51° ESE
STARLINK-67 3.9 18:14:54 10° NW 18:16:38 33° NW 18:16:38 33° NW
STARLINK-76 3.8 18:15:06 10° SSW 18:18:59 49° SE 18:19:16 48° ESE
STARLINK 3.7 18:16:43 10° SW 18:20:37 51° SE 18:20:50 50° SE
Aureole 1 4.5 18:17:04 10° NNW 18:20:55 65° NE 18:20:55 65° NE
Meteor 2-4 Rocket 3.7 18:15:38 10° S 18:21:29 81° E 18:27:04 11° NNE
STARLINK-32 3.7 18:18:21 10° SW 18:22:15 52° SE 18:22:26 52° SE
Cosmos 2266 Rocket 4.0 18:17:15 10° S 18:23:35 67° E 18:29:53 10° NNE
STARLINK-40 3.7 18:19:58 10° SW 18:23:54 54° SE 18:24:01 54° SE
S3M 3.9 18:18:05 10° N 18:24:17 87° W 18:30:24 10° S
Cosmos 2151 Rocket 3.4 18:20:58 10° N 18:25:24 89° E 18:29:47 10° S
STARLINK-44 3.6 18:21:37 10° SW 18:25:34 56° SE 18:25:36 56° SE
YAOGAN 6 3.1 18:22:18 10° S 18:25:48 57° W 18:29:23 10° NNW
STARLINK-37 3.6 18:23:22 10° SW 18:27:19 61° SE 18:27:21 61° SE
STARLINK-36 3.6 18:24:43 10° SW 18:28:37 60° SE 18:28:37 60° SE
STARLINK-41 3.6 18:26:31 10° SW 18:30:21 60° SSE 18:30:21 60° SSE
STARLINK-64 3.6 18:28:10 10° SW 18:31:56 62° SSE 18:31:56 62° SSE
SKYMED 2 4.1 18:30:24 17° N 18:33:40 58° WNW 18:37:55 10° SSW
STARLINK-35 3.6 18:29:49 10° SW 18:33:34 64° SSE 18:33:34 64° SSE
CSL-04 Debris 4.0 18:28:30 10° SSE 18:33:56 85° ENE 18:39:23 10° NNW
STARLINK-51 3.6 18:31:28 10° SW 18:35:10 65° S 18:35:10 65° S
STARLINK-30 3.6 18:33:07 10° SW 18:36:46 65° S 18:36:46 65° S
DMSP B5D1-3 4.4 18:37:13 58° ENE 18:37:46 62° ESE 18:42:49 10° S
Cosmos 2344 4.4 18:28:24 10° NW 18:38:04 66° NE 18:51:32 10° SE
STARLINK-33 3.7 18:34:43 10° SW 18:38:18 65° S 18:38:18 65° S
Cosmos 1544 3.4 18:35:12 10° NNW 18:38:47 64° W 18:42:22 10° S
Gbstr 26 Del rocket 3.9 18:31:42 10° WSW 18:38:56 84° NNW 18:40:50 48° NE
STARLINK-50 3.7 18:36:24 10° SW 18:39:56 65° SSW 18:39:56 65° SSW
STARLINK 3.9 18:37:50 10° SW 18:41:12 57° SSW 18:41:12 57° SSW
Cosmos 2084 Rocket 3.4 18:37:57 10° SSW 18:42:10 79° SSE 18:42:10 79° SSE
STARLINK-56 3.8 18:39:43 10° SW 18:43:08 62° SSW 18:43:08 62° SSW
Starlink (trailer) 3.9 18:41:22 10° SW 18:44:43 60° SW 18:44:43 60° SW
USA 116 4.4 18:42:50 25° N 18:45:55 74° WNW 18:50:40 10° SSW
STARLINK-38 4.0 18:43:02 10° SW 18:46:20 59° SW 18:46:20 59° SW
STARLINK-65 4.0 18:44:30 10° SW 18:47:44 57° SW 18:47:44 57° SW
CZ-4 R/B 2.4 18:44:52 10° S 18:48:33 43° W 18:52:15 10° NNW
Cosmos 2263 4.3 18:43:05 10° NNW 18:48:54 77° WSW 18:54:39 10° SSE
USA 267 3.5 18:45:12 15° SE 18:50:48 65° SW 18:57:19 10° NW
STARLINK-69 4.3 18:49:41 10° SW 18:52:45 51° WSW 18:52:45 51° WSW
CZ-4C R/B 2.4 18:49:15 10° SW 18:54:13 61° NW 18:55:39 46° N
STARLINK-66 4.4 18:51:17 10° SW 18:54:16 48° WSW 18:54:16 48° WSW
NOSS 3-1 (C) 4.2 18:51:44 10° NW 18:59:25 79° WSW 19:08:06 10° SSE
NOAA 11 4.4 18:57:44 10° S 19:03:11 70° WSW 19:08:41 10° NNW
Cosmos 1741 Rocket 4.5 19:00:19 10° SW 19:05:28 58° WNW 19:06:32 48° NNW
Cosmos 468 Rocket 4.4 19:02:13 10° NNW 19:07:21 61° WSW 19:09:59 28° S
Meteor 2-8 Rocket 4.5 19:02:24 10° NNW 19:08:28 75° W 19:14:30 10° S
Cosmos 1656 Rocket 3.7 19:03:03 10° NNW 19:07:57 72° NW 19:07:57 72° NW
Cosmos 1943 3.9 19:03:34 10° SW 19:09:01 50° WNW 19:10:43 38° NNW
USA 229 DEB 4.2 19:04:05 10° NW 19:11:18 65° WSW 19:17:28 16° SSE
USA 229 4.2 19:04:10 10° NW 19:11:23 65° WSW 19:17:23 17° SSE
Cosmos 2315 Rocket 4.1 19:09:18 10° NNW 19:15:37 74° W 19:21:49 10° S
Lacrosse 5 2.9 19:11:09 10° WSW 19:15:40 39° NW 19:15:40 39° NW
NOSS 3-1 (A) 4.0 19:09:21 10° NW 19:17:02 88° WSW 19:19:54 47° SSE
Cosmos 2369 Rocket 4.0 19:16:58 10° NW 19:21:47 30° WSW 19:26:37 10° SSW
CZ-3B R/B 3.9 19:27:16 10° SSW 19:28:22 13° SSW 19:28:22 13° SSW
